Dillon, MT

3:07 AM MST on January 19, 2017 (GMT -0700)
Dillon

Weather History for KDLN - November, 2011

Change the Weather History Date:

Thursday, November 17, 2011

  Actual Average Record
Temperature  
Mean Temperature 35 °F 30 °F  
Max Temperature 49 °F 40 °F 64 °F (1976)
Min Temperature 21 °F 19 °F -12 °F (1955)
Degree Days  
Heating Degree Days 30    
Month to date heating degree days 605  
Since 1 July heating degree days 1403  
Cooling Degree Days 0    
Month to date cooling degree days 0  
Year to date cooling degree days 140  
Moisture  
Dew Point 25 °F    
Average Humidity 63    
Maximum Humidity 92    
Minimum Humidity 34    
Precipitation  
Precipitation 0.12 in 0.01 in 0.48 in (1941)
Month to date precipitation 0.32 0.23  
Year to date precipitation 8.48 10.16  
Snow  
Snow 0.00 in - - ()
Snow Depth 0.00 in    
Sea Level Pressure  
Sea Level Pressure 29.68 in    
Wind  
Wind Speed 13 mph (South)    
Max Wind Speed 35 mph    
Max Gust Speed 47 mph    
Visibility 5 miles    
Events Fog , Snow    
T = Trace of Precipitation, MM = Missing Value Source: NWS Daily Summary

Daily Weather History Graph

Daily Weather History Graph

Search for Another Location

Airport or City:

Trip Planner

Search our weather history database for the weather conditions in past years. The results will help you decide how hot, cold, wet, or windy it might be!

Date:

Astronomy

Nov. 17, 2011 Rise Set
Actual Time 7:31 AM MST 4:58 PM MST
Civil Twilight 6:58 AM MST 5:30 PM MST
Nautical Twilight 6:23 AM MST 6:06 PM MST
Astronomical Twilight 5:48 AM MST 6:41 PM MST
Moon 11:30 PM MST (11/17) 12:36 PM MST (11/17)
Length of Visible Light 10h 31m
Length of Day
9h 27m
Waning Gibbous, 59% of the Moon is Illuminated
Nov 17
Waning Gibbous
Nov 18
Last Quarter
Nov 24
New
Dec 2
First Quarter
Dec 10
Full

Hourly Weather History & Observations

Time (MST) Temp. Windchill Dew Point Humidity Pressure Visibility Wind Dir Wind Speed Gust Speed Precip Events Conditions
12:53 AM 25.0 °F 18.1 °F 9.0 °F 51% 30.08 in 10.0 mi South 5.8 mph - N/A   Clear
1:53 AM 27.0 °F 21.6 °F 10.9 °F 51% 30.03 in 10.0 mi SSE 4.6 mph - N/A   Overcast
2:53 AM 28.0 °F 24.2 °F 12.0 °F 51% 29.97 in 10.0 mi SE 3.5 mph - N/A   Overcast
3:53 AM 27.0 °F - 14.0 °F 58% 29.94 in 10.0 mi Calm Calm - N/A   Mostly Cloudy
4:53 AM 26.1 °F 21.9 °F 14.0 °F 60% 29.90 in 10.0 mi West 3.5 mph - N/A   Clear
5:53 AM 27.0 °F 20.5 °F 15.1 °F 61% 29.88 in 10.0 mi Variable 5.8 mph - N/A   Partly Cloudy
6:18 AM 37.4 °F 27.2 °F 19.4 °F 48% 29.76 in 10.0 mi SSW 19.6 mph 34.5 mph N/A   Scattered Clouds
6:53 AM 37.0 °F 25.4 °F 19.0 °F 48% 29.80 in 8.0 mi SSW 25.3 mph 47.2 mph N/A   Partly Cloudy
7:53 AM 37.0 °F 26.2 °F 19.9 °F 50% 29.79 in 10.0 mi South 21.9 mph 31.1 mph N/A   Mostly Cloudy
8:53 AM 39.0 °F 29.0 °F 21.0 °F 49% 29.73 in 10.0 mi South 20.7 mph 31.1 mph N/A   Clear
10:53 AM 46.0 °F 37.6 °F 21.9 °F 39% 29.63 in 10.0 mi SSW 24.2 mph 36.8 mph N/A   Clear
11:53 AM 48.9 °F - 21.0 °F 33% 29.60 in 10.0 mi SW 34.5 mph 46.0 mph N/A   Scattered Clouds
12:53 PM 46.9 °F - 23.0 °F 39% 29.57 in 10.0 mi SSW 23.0 mph 34.5 mph N/A   Mostly Cloudy
1:53 PM 48.0 °F - 23.0 °F 37% 29.56 in 10.0 mi WSW 21.9 mph 38.0 mph N/A   Mostly Cloudy
2:53 PM 39.9 °F 32.1 °F 32.0 °F 73% 29.62 in 10.0 mi SW 13.8 mph - 0.00 in   Overcast
3:32 PM 39.2 °F 29.8 °F 30.2 °F 70% 29.60 in 10.0 mi West 18.4 mph 27.6 mph N/A   Overcast
3:53 PM 35.1 °F 27.4 °F 32.0 °F 89% 29.66 in 10.0 mi North 10.4 mph - N/A   Overcast
4:03 PM 35.6 °F 29.2 °F 30.2 °F 81% 29.61 in 10.0 mi North 8.1 mph - N/A   Overcast
4:29 PM 33.8 °F 25.8 °F 30.2 °F 87% 29.63 in 10.0 mi NW 10.4 mph - N/A   Overcast
4:38 PM 33.8 °F 27.7 °F 30.2 °F 87% 29.64 in 1.8 mi NW 6.9 mph - 0.00 in Snow Light Snow
4:41 PM 33.8 °F 28.6 °F 30.2 °F 87% 29.64 in 1.0 mi WNW 5.8 mph - 0.00 in Snow Light Snow
4:43 PM 33.8 °F 28.6 °F 30.2 °F 87% 29.64 in 0.8 mi NW 5.8 mph - 0.00 in Snow Light Snow
4:53 PM 32.0 °F - 30.9 °F 96% 29.70 in 0.5 mi Calm Calm - 0.02 in Fog , Snow Snow
5:00 PM 32.0 °F - 30.2 °F 93% 29.64 in 1.0 mi Calm Calm - 0.00 in Snow Light Snow
5:02 PM 32.0 °F - 30.2 °F 93% 29.64 in 1.8 mi Calm Calm - 0.00 in Snow Light Snow
5:05 PM 32.0 °F - 30.2 °F 93% 29.64 in 3.0 mi Calm Calm - 0.00 in Snow Light Snow
5:16 PM 32.0 °F 24.8 °F 30.2 °F 93% 29.64 in 1.8 mi SSE 8.1 mph - 0.00 in Snow Light Snow
5:30 PM 32.0 °F 25.6 °F 30.2 °F 93% 29.64 in 1.8 mi SSE 6.9 mph - 0.00 in Snow Light Snow
5:37 PM 32.0 °F 24.8 °F 30.2 °F 93% 29.65 in 2.5 mi South 8.1 mph - 0.00 in Snow Light Snow
5:40 PM 32.0 °F 24.2 °F 30.2 °F 93% 29.65 in 3.0 mi South 9.2 mph - 0.00 in Snow Light Snow
5:53 PM 32.0 °F 24.2 °F 30.0 °F 92% 29.71 in 3.0 mi South 9.2 mph - 0.01 in Snow Light Snow
6:00 PM 32.0 °F 24.2 °F 30.2 °F 93% 29.63 in 2.0 mi South 9.2 mph - 0.00 in Snow Light Snow
6:06 PM 30.2 °F 22.6 °F 30.2 °F 100% 29.63 in 1.0 mi South 8.1 mph - 0.00 in Snow Light Snow
6:16 PM 30.2 °F 24.3 °F 28.4 °F 93% 29.63 in 2.0 mi South 5.8 mph - 0.00 in Snow Light Snow
6:24 PM 30.2 °F 25.4 °F 28.4 °F 93% 29.64 in 6.0 mi South 4.6 mph - 0.00 in Snow Light Snow
6:33 PM 30.2 °F 23.4 °F 28.4 °F 93% 29.64 in 1.8 mi South 6.9 mph - 0.01 in Snow Light Snow
6:38 PM 30.2 °F 24.3 °F 28.4 °F 93% 29.64 in 0.8 mi South 5.8 mph - 0.01 in Snow Light Snow
6:46 PM 30.2 °F 22.6 °F 28.4 °F 93% 29.63 in 1.0 mi SSW 8.1 mph - 0.02 in Snow Light Snow
6:53 PM 30.9 °F 24.3 °F 28.9 °F 92% 29.68 in 1.2 mi Variable 6.9 mph - 0.03 in Snow Light Snow
6:59 PM 30.2 °F 24.3 °F 28.4 °F 93% 29.64 in 1.0 mi East 5.8 mph - 0.00 in Snow Light Snow
7:08 PM 30.2 °F 20.8 °F 26.6 °F 86% 29.65 in 0.8 mi East 11.5 mph 16.1 mph 0.01 in Snow Light Snow
7:25 PM 28.4 °F 17.5 °F 26.6 °F 93% 29.63 in 1.0 mi East 13.8 mph - 0.03 in Snow Light Snow
7:53 PM 28.0 °F 19.3 °F 26.1 °F 92% 29.70 in 0.8 mi East 9.2 mph - 0.04 in Snow Light Snow
8:03 PM 28.4 °F 20.4 °F 26.6 °F 93% 29.65 in 0.8 mi East 8.1 mph - 0.01 in Snow Light Snow
8:12 PM 28.4 °F 19.7 °F 26.6 °F 93% 29.64 in 1.0 mi East 9.2 mph - 0.01 in Snow Light Snow
8:21 PM 28.4 °F 21.2 °F 26.6 °F 93% 29.64 in 1.8 mi East 6.9 mph - 0.02 in Snow Light Snow
8:23 PM 28.4 °F 20.4 °F 26.6 °F 93% 29.64 in 2.0 mi East 8.1 mph - 0.02 in Snow Light Snow
8:53 PM 28.0 °F 20.0 °F 26.1 °F 92% 29.68 in 3.0 mi East 8.1 mph - 0.02 in Snow Light Snow
9:00 PM 28.4 °F 20.4 °F 24.8 °F 86% 29.64 in 1.8 mi East 8.1 mph - 0.00 in Snow Light Snow
9:20 PM 26.6 °F 16.8 °F 24.8 °F 93% 29.64 in 2.5 mi ESE 10.4 mph - 0.00 in Snow Light Snow
9:30 PM 26.6 °F 16.8 °F 24.8 °F 93% 29.64 in 4.0 mi ESE 10.4 mph - 0.00 in Snow Light Snow
9:53 PM 26.1 °F 16.2 °F 23.0 °F 88% 29.66 in 6.0 mi ESE 10.4 mph - 0.00 in Snow Light Snow
10:42 PM 26.6 °F 19.1 °F 24.8 °F 93% 29.63 in 10.0 mi South 6.9 mph - 0.00 in   Overcast
10:49 PM 26.6 °F 20.0 °F 24.8 °F 93% 29.62 in 10.0 mi South 5.8 mph - 0.00 in   Overcast
10:53 PM 27.0 °F 20.5 °F 24.1 °F 89% 29.63 in 10.0 mi South 5.8 mph - 0.00 in   Overcast
11:53 PM 21.9 °F 14.5 °F 18.0 °F 85% 29.61 in 10.0 mi South 5.8 mph - N/A   Partly Cloudy